Previsão horária em Almaty

Hoje, 20 Janeiro, Quarta-feira

Tempo Temperatura Precipitação Vento Pressão Humidade
00:00 +3°C° 0 mm 2 m/s 687 mmHg 60%
01:00 +4°C° 0 mm 1 m/s 687 mmHg 59%
02:00 +4°C° 0 mm 1 m/s 687 mmHg 58%
03:00 +5°C° 0 mm 1 m/s 688 mmHg 63%
04:00 +5°C° 0 mm 1 m/s 688 mmHg 68%
05:00 +4°C° 0 mm 2 m/s 688 mmHg 75%
06:00 +4°C° 0 mm 2 m/s 688 mmHg 76%
07:00 +5°C° 0 mm 1 m/s 689 mmHg 76%
08:00 +5°C° 0 mm 1 m/s 689 mmHg 76%
09:00 +4°C° 0.5 mm 1 m/s 690 mmHg 83%
10:00 +3°C° 0.5 mm 2 m/s 690 mmHg 90%
11:00 +3°C° 0.5 mm 2 m/s 690 mmHg 97%
12:00 +3°C° 1.4 mm 2 m/s 690 mmHg 94%
13:00 +4°C° 1.4 mm 2 m/s 690 mmHg 91%
14:00 +4°C° 1.4 mm 2 m/s 691 mmHg 88%
15:00 +4°C° 0 mm 2 m/s 691 mmHg 81%
16:00 +3°C° 0 mm 2 m/s 691 mmHg 73%
17:00 +2°C° 0 mm 2 m/s 692 mmHg 66%
18:00 +2°C° 0 mm 2 m/s 692 mmHg 65%
19:00 +2°C° 0 mm 2 m/s 692 mmHg 65%
20:00 +2°C° 0 mm 2 m/s 692 mmHg 64%
21:00 +2°C° 0 mm 2 m/s 692 mmHg 62%
22:00 +2°C° 0 mm 2 m/s 692 mmHg 60%
23:00 +2°C° 0 mm 2 m/s 691 mmHg 59%

Amanhã, 21 Janeiro, Quinta-feira

Tempo Temperatura Precipitação Vento Pressão Humidade
00:00 +1°C° 0 mm 3 m/s 691 mmHg 59%
01:00 +1°C° 0 mm 3 m/s 690 mmHg 60%
02:00 +1°C° 0 mm 3 m/s 689 mmHg 60%
03:00 +1°C° 0 mm 3 m/s 689 mmHg 62%
04:00 -1°C° 0 mm 4 m/s 688 mmHg 63%
05:00 -1°C° 0 mm 4 m/s 688 mmHg 64%
06:00 0°C° 0 mm 3 m/s 688 mmHg 63%
07:00 0°C° 0 mm 3 m/s 687 mmHg 62%
08:00 0°C° 0 mm 3 m/s 686 mmHg 61%
09:00 +1°C° 0 mm 3 m/s 685 mmHg 64%
10:00 +2°C° 0 mm 3 m/s 685 mmHg 67%
11:00 +3°C° 0 mm 3 m/s 684 mmHg 71%
12:00 +3°C° 0 mm 3 m/s 683 mmHg 71%
13:00 +3°C° 0 mm 3 m/s 682 mmHg 72%
14:00 +4°C° 0 mm 3 m/s 681 mmHg 72%
15:00 +3°C° 0 mm 3 m/s 680 mmHg 66%
16:00 +3°C° 0 mm 2 m/s 680 mmHg 60%
17:00 +3°C° 0 mm 2 m/s 680 mmHg 53%
18:00 +2°C° 0 mm 2 m/s 680 mmHg 52%
19:00 +2°C° 0 mm 2 m/s 680 mmHg 51%
20:00 +2°C° 0 mm 2 m/s 680 mmHg 49%
21:00 +2°C° 0 mm 2 m/s 679 mmHg 49%
22:00 +2°C° 0 mm 2 m/s 679 mmHg 50%
23:00 +2°C° 0 mm 2 m/s 678 mmHg 50%

Depois de amanhã, 22 Janeiro, Sexta-feira

Tempo Temperatura Precipitação Vento Pressão Humidade
00:00 +2°C° 0 mm 2 m/s 678 mmHg 49%
01:00 +2°C° 0 mm 2 m/s 678 mmHg 48%
02:00 +3°C° 0 mm 1 m/s 677 mmHg 48%
03:00 +2°C° 0 mm 2 m/s 677 mmHg 48%
04:00 +2°C° 0 mm 2 m/s 677 mmHg 49%
05:00 +2°C° 0 mm 2 m/s 677 mmHg 49%
06:00 +3°C° 0 mm 1 m/s 678 mmHg 52%
07:00 +3°C° 0 mm 1 m/s 679 mmHg 55%
08:00 +3°C° 0 mm 1 m/s 679 mmHg 57%
09:00 +3°C° 0 mm 1 m/s 680 mmHg 65%
10:00 +3°C° 0 mm 1 m/s 681 mmHg 73%
11:00 +3°C° 0 mm 1 m/s 682 mmHg 81%
12:00 +1°C° 0.5 mm 3 m/s 683 mmHg 83%
13:00 -1°C° 0.5 mm 4 m/s 684 mmHg 86%
14:00 -1°C° 0.5 mm 5 m/s 685 mmHg 88%
15:00 -3°C° 0.8 mm 4 m/s 687 mmHg 88%
16:00 -5°C° 0.8 mm 3 m/s 688 mmHg 89%
17:00 -6°C° 0.8 mm 3 m/s 690 mmHg 89%
18:00 -6°C° 0.5 mm 2 m/s 691 mmHg 91%
19:00 -4°C° 0.5 mm 1 m/s 692 mmHg 93%
20:00 -6°C° 0.5 mm 1 m/s 693 mmHg 95%
21:00 -6°C° 0.3 mm 1 m/s 693 mmHg 93%
22:00 -6°C° 0.3 mm 1 m/s 694 mmHg 91%
23:00 -6°C° 0.3 mm 1 m/s 695 mmHg 89%

23 Janeiro, Sábado

Tempo Temperatura Precipitação Vento Pressão Humidade
00:00 -8°C° 0.1 mm 2 m/s 695 mmHg 86%
01:00 -9°C° 0.1 mm 2 m/s 695 mmHg 82%
02:00 -9°C° 0.1 mm 2 m/s 696 mmHg 79%
03:00 -10°C° 0 mm 2 m/s 695 mmHg 79%
04:00 -9°C° 0 mm 1 m/s 695 mmHg 79%
05:00 -9°C° 0 mm 1 m/s 695 mmHg 79%
06:00 -9°C° 0 mm 1 m/s 696 mmHg 80%
07:00 -9°C° 0 mm 1 m/s 696 mmHg 82%
08:00 -9°C° 0 mm 1 m/s 697 mmHg 83%
09:00 -8°C° 0 mm 1 m/s 696 mmHg 82%
10:00 -7°C° 0 mm 1 m/s 696 mmHg 81%
11:00 -6°C° 0 mm 1 m/s 695 mmHg 80%
12:00 -6°C° 0.1 mm 1 m/s 695 mmHg 79%
13:00 -7°C° 0.1 mm 2 m/s 695 mmHg 79%
14:00 -7°C° 0.1 mm 2 m/s 695 mmHg 79%
15:00 -7°C° 0.1 mm 1 m/s 695 mmHg 82%
16:00 -7°C° 0.1 mm 1 m/s 695 mmHg 85%
17:00 -8°C° 0.1 mm 1 m/s 695 mmHg 88%
18:00 -8°C° 0 mm 1 m/s 696 mmHg 88%
19:00 -9°C° 0 mm 1 m/s 696 mmHg 88%
20:00 -9°C° 0 mm 1 m/s 697 mmHg 87%
21:00 -9°C° 0 mm 2 m/s 697 mmHg 83%
22:00 -8°C° 0 mm 2 m/s 697 mmHg 78%
23:00 -8°C° 0 mm 2 m/s 697 mmHg 73%

24 Janeiro, Domingo

Tempo Temperatura Precipitação Vento Pressão Humidade
00:00 -8°C° 0.1 mm 2 m/s 698 mmHg 75%
01:00 -8°C° 0.1 mm 2 m/s 698 mmHg 78%
02:00 -8°C° 0.1 mm 2 m/s 699 mmHg 80%
03:00 -8°C° 0 mm 2 m/s 699 mmHg 81%
04:00 -9°C° 0 mm 2 m/s 700 mmHg 82%
05:00 -9°C° 0 mm 2 m/s 700 mmHg 82%
06:00 -9°C° 0 mm 2 m/s 701 mmHg 79%
07:00 -9°C° 0 mm 2 m/s 702 mmHg 76%
08:00 -9°C° 0 mm 2 m/s 703 mmHg 73%
09:00 -7°C° 0 mm 1 m/s 703 mmHg 72%
10:00 -6°C° 0 mm 1 m/s 703 mmHg 72%
11:00 -3°C° 0 mm 1 m/s 702 mmHg 72%
12:00 -3°C° 0 mm 1 m/s 702 mmHg 73%
13:00 -2°C° 0 mm 1 m/s 701 mmHg 74%
14:00 -2°C° 0 mm 1 m/s 700 mmHg 74%
15:00 -3°C° 0 mm 1 m/s 700 mmHg 74%
16:00 -4°C° 0 mm 1 m/s 700 mmHg 74%
17:00 -7°C° 0 mm 2 m/s 700 mmHg 75%
18:00 -6°C° 0 mm 1 m/s 700 mmHg 73%
19:00 -6°C° 0 mm 1 m/s 700 mmHg 71%
20:00 -6°C° 0 mm 1 m/s 700 mmHg 69%
21:00 -7°C° 0 mm 2 m/s 700 mmHg 68%
22:00 -7°C° 0 mm 2 m/s 699 mmHg 67%
23:00 -6°C° 0 mm 2 m/s 699 mmHg 66%

25 Janeiro, Segunda-feira

Tempo Temperatura Precipitação Vento Pressão Humidade
00:00 -7°C° 0 mm 2 m/s 698 mmHg 67%
01:00 -7°C° 0 mm 2 m/s 698 mmHg 67%
02:00 -7°C° 0 mm 2 m/s 697 mmHg 68%
03:00 -7°C° 0 mm 2 m/s 697 mmHg 68%
04:00 -7°C° 0 mm 2 m/s 697 mmHg 68%
05:00 -8°C° 0 mm 2 m/s 696 mmHg 68%
06:00 -8°C° 0 mm 2 m/s 696 mmHg 68%
07:00 -8°C° 0 mm 2 m/s 696 mmHg 68%
08:00 -8°C° 0 mm 2 m/s 696 mmHg 68%
09:00 -6°C° 0 mm 2 m/s 695 mmHg 70%
10:00 -5°C° 0 mm 2 m/s 695 mmHg 72%
11:00 -2°C° 0 mm 1 m/s 695 mmHg 75%
12:00 -2°C° 0 mm 1 m/s 694 mmHg 76%
13:00 -1°C° 0 mm 1 m/s 694 mmHg 77%
14:00 -1°C° 0 mm 1 m/s 694 mmHg 78%
15:00 -2°C° 0 mm 1 m/s 694 mmHg 77%
16:00 -3°C° 0 mm 1 m/s 694 mmHg 76%
17:00 -6°C° 0 mm 0 m/s 694 mmHg 76%
18:00 -6°C° 0 mm 0 m/s 694 mmHg 74%
19:00 -6°C° 0 mm 0 m/s 694 mmHg 71%
20:00 -6°C° 0 mm 0 m/s 694 mmHg 69%
21:00 -6°C° 0 mm 0 m/s 694 mmHg 68%
22:00 -6°C° 0 mm 0 m/s 694 mmHg 67%
23:00 -6°C° 0 mm 1 m/s 694 mmHg 66%
Mostrar mais

Necessitamos do seu Consentimento

A Meteoprog e os seus Fornecedores de Serviços podem armazenar e aceder a dados pessoais como cookies, identificadores do dispositivo ou outras tecnologias semelhantes existentes no seu dispositivo e processar estes dados para personalizar conteúdos e anúncios, assim como funcionalidades nas redes sociais e análise de tráfego.

  • Armazenar e/ou aceder a informações no seu dispositivo

    Os cookies, identificadores do dispositivo ou outras informações podem ser armazenados ou acedidos no seu dispositivo, para os fins acima indicados.

  • Anúncios e conteúdos personalizados, medição de anúncios e conteúdos, dados sobre o público-alvo e desenvolvimento de produtos

    Os anúncios e os conteúdos podem ser personalizados com base num perfil. Podem ser adicionados dados adicionais para uma maior personalização dos anúncios e dos conteúdos. A eficácia dos anúncios e dos conteúdos pode ser medida. Podem ser obtidas informações sobre o público que visualizou os anúncios e os conteúdos. Estes dados podem ser usados para desenvolver ou melhorar sistemas, softwares ou a experiência do utilizador.

Ao clicar em "Eu concordo”, permitirá o uso de cookies, identificadores do dispositivo e web beacons mencionados ou outras tecnologias semelhantes. As configurações do navegador do seu dispositivo podem ser alteradas.

Para certos fins, podem ser invocados interesses legítimos ao invés de consentimento. Pode ler mais informação sobre este assunto na nossa Política de Privacidade e Cookies.